Location: Costa Mesa
(33.6411°N, 117.9187°W)
Time: 02:13:08
(UTC+00:00)

Chandra Rocket (1) - Pass Details

Date: 10 September 2024
Orbit: 283 x 10830 km, 28.4° (Epoch: 10 October)

Event Time Altitude Azimuth Distance (km) Brightness Sun altitude
Exits shadow 12:15:42 29° 229° (SW) 1,044 2.7 -16.4°
Maximum altitude 12:17:15 47° 173° (S) 939 2.9 -16.1°
Drops below altitude 10° 12:25:33 10° 101° (ESE) 4,184 7.3 -14.4°
Sets 12:32:02 0° 98° (E) 6,754 8.7 -13.1°
